Hlavní strana
METAR-TAF:

METAR-TAF

Letiště :

Rutherford County Airport (Marchman Field)

Rutherfordton, Severní Karolína, Spojené státy americké

zeměpisná šířka: 35-25-42N, zeměpisná délka: 081-56-06W, výška: 329 m

Aktuální stav počasí

Zpráva byla vytvořena před 13 minutami, v 17:15 UTC
Bezvětří
Teplota 10°C
Vlhkost vzduchu 46%
Tlak 1022 hPa
Viditelnost: 16.1 km
Jasno

METAR: KFQD 151715Z AUTO 00000KT 10SM CLR 10/M01 A3018 RMK AO2

Čas: 12:28 (17:28 UTC)


TAF: chybějící

Stav a předpovědi počasí z více než 4 000 letišť (zprávy METAR a TAF).

Červené a žluté tečky na mapě představují dostupné meteorologické stanice.

Když kurzor umístíte na tečku, zobrazí se název stanice.

Pak kliknutím zobrazíte stav a předpověď počasí.

Chcete-li změnit mapu, kliknutím na zelené tlačítko se znaménkem +mapu přiblížíte, kliknutím na zelené tlačítko se znaménkem – mapu oddálíte a kliknutím na zelené šipky přejdete na sousední mapy.


METAR-TAF: